EHI
19 18 16 16 16 16 15 15 15 15 13 11 8 4 1 0 1 1 1 1 2 3 3 3 3 3 3 2 2 3 3 2 1 0 0 0 0 1 0 0 0 0 0
24 23 21 21 22 24 24 24 25 24 21 16 11 6 2 1 3 3 3 2 3 3 4 4 4 4 4 3 3 3 3 2 2 1 0 0 0 1 0 0 0 0 0
32 32 33 33 34 35 35 36 39 39 33 25 18 12 7 5 6 6 7 6 4 5 6 8 9 10 11 9 6 5 4 3 2 1 0 1 1 1 1 0 0 0 0
40 43 45 46 48 48 46 47 50 50 45 37 30 23 16 12 10 11 12 11 10 12 14 16 17 18 19 17 12 9 8 6 3 1 0 1 2 2 2 1 0 0 0
50 52 54 56 58 58 57 57 59 58 52 48 43 34 25 15 10 11 14 18 23 27 29 29 26 21 19 15 11 9 9 8 5 2 0 1 1 2 2 1 0 0 0
56 58 60 61 62 63 62 61 64 64 59 57 53 45 33 19 8 6 10 20 32 39 43 39 28 16 11 8 5 4 5 6 6 3 2 1 2 3 3 1 0 0 0
54 55 58 59 59 60 60 60 63 65 62 61 61 57 45 27 8 1 3 12 24 33 40 38 25 13 8 8 6 3 2 3 3 3 3 2 3 4 5 4 2 2 2
44 45 46 47 48 50 50 53 57 57 55 56 59 59 51 32 11 1 0 3 8 15 23 25 20 14 9 8 8 5 4 2 1 1 1 1 1 2 4 4 4 4 4
28 29 29 29 32 34 35 39 44 44 43 44 47 48 44 30 11 1 0 0 1 4 8 10 11 9 6 3 3 3 3 3 1 0 0 0 0 0 1 2 2 2 2
12 13 13 13 16 19 21 24 26 27 27 27 28 29 27 20 8 1 0 0 1 2 3 3 2 2 1 0 0 0 1 1 1 0 0 0 0 0 0 0 0 0 0
3 3 3 4 5 8 10 11 11 11 10 10 10 11 11 8 3 0 0 0 0 1 1 1 1 0 0 0 0 0 0 0 0 0 0 0 0 0 0 0 0 0 0
1 1 1 1 1 2 2 2 2 2 1 1 2 2 2 2 1 0 0 0 0 0 0 0 0 0 0 0 0 0 0 0 0 0 0 0 0 0 0 0 0 0 0
0 0 0 0 0 0 0 0 0 0 0 0 1 1 1 1 0 0 0 0 0 0 0 0 0 0 0 0 0 0 0 0 0 0 0 0 0 0 0 0 0 1 1
0 0 0 0 0 0 0 0 0 0 0 0 0 0 0 0 0 0 0 0 0 0 0 0 0 0 0 0 0 0 0 0 0 0 0 0 0 0 0 0 0 0 0
0 0 0 0 0 0 0 0 0 0 0 0 0 0 0 0 0 0 0 0 0 0 0 0 0 0 0 0 0 0 0 0 0 0 0 0 0 0 0 0 0 0 0
0 0 0 0 0 0 0 0 0 0 0 0 0 0 0 0 0 0 0 0 0 0 0 0 0 0 0 0 0 0 0 0 0 0 0 0 0 0 0 0 0 0 0
0 0 0 0 0 0 0 0 0 0 0 0 0 0 0 0 0 0 0 0 0 0 0 0 0 0 0 0 0 0 0 0 0 0 0 0 0 0 0 0 0 0 0
0 0 0 0 0 0 0 0 0 0 0 0 0 0 0 0 0 0 0 0 0 0 0 0 0 0 0 0 0 0 0 0 0 0 0 0 0 0 0 0 0 0 0
0 0 0 0 0 0 0 0 0 0 0 0 0 0 0 0 0 0 0 0 0 0 0 0 0 0 0 0 0 0 0 0 0 0 0 0 1 0 0 0 0 0 0
0 0 0 0 0 0 0 0 0 0 0 0 0 0 0 0 0 0 0 0 0 0 0 0 0 0 0 0 0 0 0 0 0 0 0 0 0 0 0 0 0 0 0
0 0 0 0 0 0 0 0 0 0 0 0 0 0 0 0 0 0 0 0 0 0 0 0 0 0 0 0 0 0 0 0 0 0 0 0 0 0 0 0 0 0 0
0 0 0 0 0 0 0 0 0 0 0 0 0 0 0 0 0 0 0 0 0 0 0 0 0 0 0 0 0 0 0 0 0 0 0 0 0 0 0 0 0 0 0
0 0 0 0 0 0 0 0 0 0 0 0 0 0 0 0 0 0 0 0 0 0 0 0 0 0 0 0 0 0 0 0 0 0 0 0 0 0 0 0 0 0 0
0 0 0 0 0 0 0 0 0 0 0 0 0 0 0 0 0 0 0 0 0 0 0 0 0 0 0 0 0 0 0 0 0 0 0 0 0 0 0 0 0 0 0
0 0 0 0 0 0 0 0 0 0 0 0 0 0 0 0 0 0 0 0 0 0 0 0 0 0 0 0 0 0 0 0 0 0 0 0 0 0 0 0 0 0 0
0 0 0 0 0 0 0 0 0 0 0 0 0 0 0 0 0 0 0 0 0 0 0 0 0 0 0 0 0 0 0 0 0 0 0 0 0 0 0 0 0 0 0
Wind_Speed
10 9 8 9 9 8 6 6 5 5 5 5 6 6 6 6 6 6 6 5 6 5 5 5 5 5 3 3 2 3 3 3 4 4 3 2 2 3 3 3 4 4 7
10 9 9 8 8 8 8 7 6 6 6 6 6 6 7 7 7 7 8 7 6 6 7 6 6 6 6 5 4 4 4 3 4 5 4 3 4 5 5 5 6 7 6
11 10 9 9 8 8 8 7 8 7 7 7 8 8 7 7 7 8 8 8 7 7 7 7 7 7 7 6 6 6 4 5 4 5 5 5 4 5 5 6 7 6 8
10 10 9 9 8 8 7 7 7 7 8 8 7 8 8 8 7 8 8 8 8 8 8 8 8 8 8 8 7 7 6 6 5 5 5 5 5 5 4 5 5 5 7
8 8 7 7 7 7 7 7 7 7 9 8 7 7 7 7 8 9 8 10 9 9 8 8 9 11 12 10 9 7 8 7 6 7 7 6 6 5 5 5 6 5 6
5 5 5 5 4 5 5 5 5 6 6 6 7 7 8 9 10 11 9 8 7 8 8 8 9 11 13 15 16 14 11 9 8 7 7 7 7 6 5 5 5 5 5
4 3 3 2 2 0 2 2 2 3 4 5 5 5 5 6 5 5 7 5 6 6 6 6 9 11 11 10 13 17 17 18 16 11 11 10 8 6 5 6 6 6 6
6 5 5 5 5 3 3 3 2 1 1 2 3 3 4 4 2 3 4 5 7 7 7 7 8 9 11 10 10 10 11 13 15 14 14 14 13 9 8 7 7 7 7
11 9 9 8 6 5 5 4 3 3 2 3 3 3 3 2 2 0 2 3 5 7 8 8 8 9 10 11 10 11 11 10 14 18 18 18 20 19 13 7 7 7 9
10 9 8 8 7 6 5 5 4 3 3 3 4 3 3 2 1 2 2 2 4 5 6 6 8 6 7 8 7 9 11 11 11 12 11 14 15 16 17 13 11 10 10
9 9 8 6 5 5 5 4 3 3 3 3 4 4 3 1 1 2 2 1 3 5 5 6 5 6 8 9 8 9 12 12 10 10 10 9 9 10 12 13 13 13 13
7 6 6 5 6 5 4 3 3 3 4 3 2 3 3 2 4 3 2 2 5 6 6 7 7 12 14 15 12 13 16 14 10 10 10 10 10 10 10 11 13 15 15
5 4 3 3 2 3 3 4 3 3 3 4 5 5 5 4 4 6 6 6 7 5 7 10 13 16 16 14 15 18 14 10 10 11 11 11 10 10 9 9 11 13 15
4 3 2 2 2 1 2 3 3 3 3 4 4 5 5 4 4 5 6 7 9 8 8 11 15 17 16 16 15 13 10 10 10 11 11 10 9 8 9 9 9 9 10
5 4 4 4 2 1 2 2 2 1 1 1 2 3 4 4 4 4 5 6 7 8 10 10 10 10 9 9 8 8 7 7 8 9 9 10 10 9 9 8 8 8 9
6 6 6 5 3 3 3 3 2 3 4 6 5 3 2 2 5 7 8 10 13 12 9 9 10 10 10 10 10 9 8 8 8 8 8 8 9 9 9 8 8 9 10
5 5 5 6 6 5 5 5 4 3 3 5 5 4 5 6 8 9 11 12 14 12 8 8 8 8 9 9 9 10 10 9 9 9 9 9 9 9 9 9 9 9 9
5 5 4 4 5 6 6 6 6 6 5 3 2 4 4 7 9 11 11 10 9 8 7 8 8 8 9 9 9 10 10 10 10 10 10 10 9 9 10 9 8 9 9
6 5 4 5 7 6 6 6 6 7 7 6 5 4 4 7 10 10 8 7 8 9 8 9 9 9 9 10 10 10 10 10 11 10 10 11 10 9 9 9 9 11 10
5 5 5 6 7 6 6 7 7 7 7 7 7 8 9 10 9 8 7 6 7 8 8 9 9 9 9 9 9 10 10 10 11 10 10 10 9 9 10 11 9 8 7
7 6 6 6 5 6 7 7 7 7 7 8 7 7 9 9 9 9 8 7 8 8 9 9 9 9 9 8 9 10 12 10 10 10 10 10 10 9 8 8 8 7 7
7 7 6 6 6 6 6 7 7 7 8 9 8 9 10 8 8 8 8 8 8 8 8 8 9 8 8 8 9 10 10 11 10 10 11 11 10 9 9 8 7 7 7
6 6 6 6 6 6 6 7 7 7 8 8 8 8 8 8 8 8 9 9 9 9 8 8 9 9 8 8 8 8 9 10 9 11 11 11 10 10 9 9 9 8 7
6 6 7 6 6 6 7 7 6 7 8 8 8 8 8 8 8 9 9 9 9 10 9 9 9 12 15 11 8 7 7 8 10 9 13 12 12 10 9 9 9 9 7
5 6 6 6 6 6 6 6 6 7 7 7 7 7 8 8 9 9 9 9 11 10 12 11 9 10 14 15 13 11 10 11 10 10 10 10 11 12 11 10 8 8 8
6 6 6 5 5 5 5 6 6 7 6 6 7 7 8 8 8 9 9 9 10 10 10 10 12 15 15 12 14 14 11 11 11 12 10 9 10 10 10 9 11 9 9
Wind_Direction
192 195 204 194 202 207 215 218 209 200 190 180 183 191 197 199 197 202 229 234 213 220 231 231 224 241 273 296 276 242 236 239 256 272 275 274 197 216 195 219 245 233 222
193 194 203 201 198 203 208 209 206 204 200 195 196 203 208 207 202 203 217 233 227 223 228 233 230 228 221 235 259 269 258 246 246 266 273 275 256 225 217 221 242 255 252
193 195 198 202 204 208 209 203 201 201 205 205 202 207 213 215 207 208 214 225 232 231 229 229 230 233 233 228 228 240 248 251 229 237 249 243 241 233 225 228 236 241 255
190 193 197 200 204 206 209 206 204 201 205 211 210 211 213 217 219 217 217 221 228 233 234 234 232 230 230 230 236 236 241 253 257 252 252 248 243 232 215 218 237 233 242
178 189 197 201 202 204 209 208 207 207 212 210 214 216 218 220 224 221 221 226 225 231 235 236 239 239 236 234 238 233 231 234 240 243 245 245 241 232 223 217 230 234 235
167 175 178 187 192 201 207 212 211 212 218 214 217 222 224 232 233 225 222 236 235 235 239 240 245 246 244 239 239 240 239 241 245 246 249 246 243 236 232 231 234 239 250
98 91 99 116 115 156 222 202 222 230 233 235 236 237 241 251 268 243 229 244 257 260 260 258 262 263 259 247 239 238 240 241 239 244 255 257 259 256 250 246 242 242 246
70 65 68 74 71 60 52 51 44 23 325 291 281 274 269 270 270 241 239 249 265 269 268 267 265 268 272 273 269 259 246 242 238 238 243 250 254 256 255 255 254 257 253
57 49 46 47 57 55 48 37 32 17 345 316 303 297 293 311 24 129 230 274 272 276 275 276 276 274 279 283 279 273 269 260 250 242 233 236 238 242 243 253 250 250 254
55 49 43 44 45 42 39 33 21 4 344 329 326 319 308 314 80 135 189 288 294 298 297 293 288 299 314 319 298 287 278 272 272 272 256 247 244 244 236 233 240 246 251
56 52 43 38 50 47 30 15 358 349 340 316 304 300 295 295 98 132 162 312 318 315 310 307 305 334 331 318 303 284 278 283 283 273 269 260 247 240 235 229 227 232 241
54 51 38 26 24 39 17 350 336 331 315 308 314 320 330 41 71 81 79 339 332 324 312 307 317 330 321 309 295 278 273 276 275 270 264 260 255 250 241 234 229 226 230
44 38 26 18 13 7 347 331 330 342 348 3 5 357 355 16 45 45 24 345 326 309 303 314 321 314 306 294 279 274 274 271 267 265 263 260 256 255 252 247 241 236 235
24 7 337 309 296 355 333 325 347 358 10 7 353 343 339 344 21 14 353 338 332 322 322 318 309 293 284 275 275 273 262 256 257 261 264 263 260 257 254 252 250 244 242
357 341 323 316 325 322 291 289 294 292 240 256 303 313 318 326 3 352 336 326 322 314 316 303 296 295 293 291 290 289 285 281 270 267 268 269 265 261 260 258 255 252 249
350 343 335 331 340 324 314 315 275 259 225 223 234 265 318 335 325 319 313 304 297 297 302 295 295 297 300 303 305 306 303 298 296 295 289 282 277 273 269 265 261 256 254
336 322 324 331 334 329 327 322 321 305 253 238 242 250 263 293 304 305 302 303 297 294 289 293 301 307 310 312 314 313 313 313 310 303 297 292 287 280 272 266 261 259 258
317 317 320 324 324 321 321 324 326 327 327 327 258 241 264 291 300 299 302 311 309 310 310 314 315 316 317 317 317 315 315 314 312 308 302 297 293 288 282 273 266 260 258
323 326 338 329 316 316 326 330 331 333 333 340 346 338 337 323 308 304 316 319 317 318 322 323 322 322 322 319 317 315 313 310 307 306 303 298 295 294 288 281 275 270 264
315 320 318 314 312 330 345 345 341 340 341 347 345 348 351 337 329 329 330 324 320 321 323 323 321 318 318 316 314 312 310 309 309 306 304 301 297 293 291 287 281 276 269
327 329 321 322 349 2 356 345 343 349 349 345 343 353 350 332 328 329 329 329 327 325 324 321 318 316 314 313 313 312 310 308 309 312 311 308 304 299 297 292 287 280 273
325 332 343 354 359 9 351 343 353 354 348 346 341 340 340 333 332 331 329 327 325 321 317 315 312 310 311 312 313 315 314 313 313 314 315 312 309 304 298 294 290 286 280
328 344 353 360 359 2 353 359 358 353 349 344 339 337 337 337 334 331 329 328 325 322 319 316 312 310 311 310 310 311 312 315 318 318 315 311 308 306 304 300 296 290 284
352 1 3 2 2 1 357 355 355 353 349 344 340 338 334 332 330 330 330 328 326 323 321 318 313 312 315 315 310 308 311 316 316 312 310 305 304 302 302 302 302 300 294
16 16 7 5 4 2 356 353 355 352 346 340 339 337 334 333 331 331 330 328 326 324 324 322 317 318 319 322 324 326 324 317 311 312 307 301 300 301 304 306 310 313 310
28 21 11 7 7 360 355 354 355 349 342 340 341 338 336 334 333 333 332 330 327 324 323 322 323 325 326 329 331 330 322 318 315 312 306 299 298 300 307 308 311 310 306